Wetterdaten: Woche 18.01.10 - 24.01.10 (KW3)
Datum Zeit Temperatur Luftfeuchte Luftdruck Niederschlag Windrichtung Wind
18.01.2010 00:00 2,6 C 88 % 1024,7 hPa 0,0 l/m W 11,7 km/h (2 Bft)
18.01.2010 01:00 2,1 C 88 % 1024,5 hPa 0,0 l/m SW 10,3 km/h (2 Bft)
18.01.2010 02:00 1,9 C 90 % 1024,6 hPa 0,0 l/m W-SW 8,9 km/h (2 Bft)
18.01.2010 03:00 1,9 C 89 % 1025,0 hPa 0,0 l/m SW 5,6 km/h (1 Bft)
18.01.2010 04:00 1,1 C 91 % 1025,2 hPa 0,0 l/m SW 5,1 km/h (1 Bft)
18.01.2010 05:00 0,8 C 94 % 1025,1 hPa 0,0 l/m S-SW 4,7 km/h (1 Bft)
18.01.2010 06:00 0,8 C 95 % 1025,5 hPa 0,0 l/m S-SW 4,7 km/h (1 Bft)
18.01.2010 07:00 0,5 C 95 % 1025,9 hPa 0,0 l/m SO 1,2 km/h (1 Bft)
18.01.2010 08:00 0,5 C 96 % 1026,2 hPa 0,0 l/m W-SW 8,7 km/h (2 Bft)
18.01.2010 09:00 1,1 C 95 % 1026,7 hPa 0,0 l/m NW 2,9 km/h (1 Bft)
18.01.2010 10:00 1,9 C 92 % 1026,8 hPa 0,0 l/m S 4,5 km/h (1 Bft)
18.01.2010 11:00 2,7 C 89 % 1026,7 hPa 0,0 l/m S-SO 6,3 km/h (2 Bft)
18.01.2010 12:00 3,1 C 88 % 1026,3 hPa 0,0 l/m S-SW 7,1 km/h (2 Bft)
18.01.2010 13:00 3,4 C 87 % 1026,0 hPa 0,0 l/m S-SW 6,0 km/h (2 Bft)
18.01.2010 14:00 3,9 C 84 % 1025,9 hPa 0,0 l/m SW 4,5 km/h (1 Bft)
18.01.2010 15:00 4,1 C 84 % 1025,8 hPa 0,0 l/m SW 3,5 km/h (1 Bft)
18.01.2010 16:00 3,9 C 84 % 1025,8 hPa 0,0 l/m N 0,7 km/h (0 Bft)
18.01.2010 17:00 2,8 C 87 % 1026,1 hPa 0,0 l/m N 0,5 km/h (0 Bft)
18.01.2010 18:00 2,0 C 90 % 1026,3 hPa 0,0 l/m N 0,5 km/h (0 Bft)
18.01.2010 19:00 1,5 C 92 % 1026,6 hPa 0,0 l/m N 1,6 km/h (1 Bft)
18.01.2010 20:00 1,0 C 92 % 1026,4 hPa 0,0 l/m N 0,9 km/h (0 Bft)
18.01.2010 21:00 -0,2 C 91 % 1026,2 hPa 0,0 l/m N 0,7 km/h (0 Bft)
18.01.2010 22:00 -1,0 C 93 % 1026,1 hPa 0,0 l/m N 0,4 km/h (0 Bft)
18.01.2010 23:00 -1,4 C 94 % 1025,7 hPa 0,0 l/m N 0,3 km/h (0 Bft)
19.01.2010 00:00 -1,8 C 95 % 1025,3 hPa 0,0 l/m N 0,4 km/h (0 Bft)
19.01.2010 01:00 -2,4 C 94 % 1025,1 hPa 0,0 l/m N 1,1 km/h (0 Bft)
19.01.2010 02:00 -3,0 C 96 % 1025,2 hPa 0,0 l/m SW 1,7 km/h (1 Bft)
19.01.2010 03:00 -3,0 C 97 % 1025,0 hPa 0,0 l/m N 0,5 km/h (0 Bft)
19.01.2010 04:00 -2,8 C 97 % 1024,4 hPa 0,0 l/m N 0,0 km/h (0 Bft)
19.01.2010 05:00 -2,9 C 97 % 1024,0 hPa 0,0 l/m N 0,3 km/h (0 Bft)
19.01.2010 06:00 -3,1 C 97 % 1023,5 hPa 0,0 l/m W 0,9 km/h (0 Bft)
19.01.2010 07:00 -3,7 C 96 % 1023,4 hPa 0,0 l/m N-NW 4,0 km/h (1 Bft)
19.01.2010 08:00 -3,5 C 97 % 1023,5 hPa 0,0 l/m N-NW 3,6 km/h (1 Bft)
19.01.2010 09:00 -2,8 C 98 % 1023,4 hPa 0,0 l/m N-NW 2,0 km/h (1 Bft)
19.01.2010 10:00 -2,0 C 98 % 1023,2 hPa 0,0 l/m N 2,4 km/h (1 Bft)
19.01.2010 11:00 -0,5 C 94 % 1022,8 hPa 0,0 l/m N-NW 2,3 km/h (1 Bft)
19.01.2010 12:00 1,2 C 87 % 1022,1 hPa 0,0 l/m N-NW 3,7 km/h (1 Bft)
19.01.2010 13:00 2,7 C 80 % 1021,2 hPa 0,0 l/m N-NW 4,0 km/h (1 Bft)
19.01.2010 14:00 3,3 C 80 % 1020,7 hPa 0,0 l/m N-NW 5,9 km/h (2 Bft)
19.01.2010 15:00 3,3 C 79 % 1020,3 hPa 0,0 l/m N-NW 6,4 km/h (2 Bft)
19.01.2010 16:00 1,9 C 83 % 1020,2 hPa 0,0 l/m N 3,1 km/h (1 Bft)
19.01.2010 17:00 -0,5 C 90 % 1020,2 hPa 0,0 l/m N 1,6 km/h (1 Bft)
19.01.2010 18:00 -1,5 C 93 % 1020,0 hPa 0,0 l/m N 0,8 km/h (0 Bft)
19.01.2010 19:00 -2,4 C 94 % 1020,0 hPa 0,0 l/m N 0,3 km/h (0 Bft)
19.01.2010 20:00 -3,4 C 96 % 1020,0 hPa 0,0 l/m N 0,8 km/h (0 Bft)
19.01.2010 21:00 -4,1 C 97 % 1019,9 hPa 0,0 l/m N 1,2 km/h (1 Bft)
19.01.2010 22:00 -3,8 C 98 % 1019,7 hPa 0,0 l/m N 0,8 km/h (0 Bft)
19.01.2010 23:00 -3,4 C 98 % 1019,5 hPa 0,0 l/m N-NW 2,9 km/h (1 Bft)
20.01.2010 00:00 -3,1 C 98 % 1019,1 hPa 0,0 l/m N-NW 2,4 km/h (1 Bft)
20.01.2010 01:00 -3,3 C 98 % 1018,5 hPa 0,0 l/m N 2,4 km/h (1 Bft)
20.01.2010 02:00 -3,4 C 97 % 1018,4 hPa 0,0 l/m N-NW 2,1 km/h (1 Bft)
20.01.2010 03:00 -3,6 C 97 % 1018,0 hPa 0,0 l/m N-NW 2,0 km/h (1 Bft)
20.01.2010 04:00 -3,8 C 97 % 1017,6 hPa 0,0 l/m N-NW 2,1 km/h (1 Bft)
20.01.2010 05:00 -4,2 C 97 % 1017,2 hPa 0,0 l/m NO 2,7 km/h (1 Bft)
20.01.2010 06:00 -4,5 C 97 % 1017,3 hPa 0,0 l/m NO 3,3 km/h (1 Bft)
20.01.2010 07:00 -4,8 C 97 % 1017,2 hPa 0,0 l/m O 3,2 km/h (1 Bft)
20.01.2010 08:00 -5,3 C 97 % 1017,1 hPa 0,0 l/m O 4,5 km/h (1 Bft)
20.01.2010 09:00 -5,5 C 97 % 1016,9 hPa 0,0 l/m O 3,2 km/h (1 Bft)
20.01.2010 10:00 -5,0 C 97 % 1016,6 hPa 0,0 l/m O 2,7 km/h (1 Bft)
20.01.2010 11:00 -4,7 C 97 % 1016,0 hPa 0,0 l/m O 3,7 km/h (1 Bft)
20.01.2010 12:00 -4,5 C 96 % 1015,3 hPa 0,0 l/m O 2,5 km/h (1 Bft)
20.01.2010 13:00 -3,4 C 97 % 1014,8 hPa 0,0 l/m O 4,4 km/h (1 Bft)
20.01.2010 14:00 -2,9 C 97 % 1014,6 hPa 0,2 l/m O 2,7 km/h (1 Bft)
20.01.2010 15:00 -2,6 C 97 % 1014,8 hPa 0,0 l/m O 3,6 km/h (1 Bft)
20.01.2010 16:00 -3,0 C 96 % 1015,3 hPa 0,0 l/m O 4,9 km/h (1 Bft)
20.01.2010 17:00 -3,5 C 96 % 1015,6 hPa 0,0 l/m S-SW 5,6 km/h (1 Bft)
20.01.2010 18:00 -3,7 C 96 % 1015,8 hPa 0,0 l/m SW 4,3 km/h (1 Bft)
20.01.2010 19:00 -3,9 C 96 % 1016,4 hPa 0,0 l/m SW 3,7 km/h (1 Bft)
20.01.2010 20:00 -4,2 C 96 % 1016,7 hPa 0,0 l/m N 2,3 km/h (1 Bft)
20.01.2010 21:00 -4,0 C 97 % 1016,9 hPa 0,0 l/m SW 2,3 km/h (1 Bft)
20.01.2010 22:00 -3,8 C 97 % 1017,1 hPa 0,0 l/m SW 2,4 km/h (1 Bft)
20.01.2010 23:00 -3,7 C 97 % 1017,4 hPa 0,0 l/m SW 2,1 km/h (1 Bft)
21.01.2010 00:00 -3,4 C 97 % 1017,9 hPa 0,0 l/m SW 2,1 km/h (1 Bft)
21.01.2010 01:00 -3,2 C 97 % 1018,1 hPa 0,0 l/m SW 1,9 km/h (1 Bft)
21.01.2010 02:00 -2,9 C 98 % 1018,7 hPa 0,0 l/m N 1,2 km/h (1 Bft)
21.01.2010 03:00 -2,8 C 98 % 1019,0 hPa 0,0 l/m N 0,0 km/h (0 Bft)
21.01.2010 04:00 -2,6 C 98 % 1019,4 hPa 0,0 l/m SW 1,3 km/h (1 Bft)
21.01.2010 05:00 -2,4 C 98 % 1019,8 hPa 0,0 l/m N 1,1 km/h (0 Bft)
21.01.2010 06:00 -2,2 C 98 % 1020,2 hPa 0,0 l/m N 0,4 km/h (0 Bft)
21.01.2010 07:00 -1,8 C 98 % 1020,8 hPa 0,0 l/m N 0,8 km/h (0 Bft)
21.01.2010 08:00 -1,6 C 98 % 1021,4 hPa 0,4 l/m N 0,0 km/h (0 Bft)
21.01.2010 09:00 -1,1 C 98 % 1022,0 hPa 1,2 l/m N 0,7 km/h (0 Bft)
21.01.2010 10:00 -0,4 C 98 % 1022,6 hPa 0,0 l/m SW 0,8 km/h (0 Bft)
21.01.2010 11:00 0,4 C 98 % 1022,9 hPa 0,2 l/m N 2,0 km/h (1 Bft)
21.01.2010 12:00 1,4 C 97 % 1022,8 hPa 0,0 l/m SW 2,9 km/h (1 Bft)
21.01.2010 13:00 1,1 C 97 % 1022,3 hPa 0,0 l/m SW 6,4 km/h (2 Bft)
21.01.2010 14:00 1,4 C 98 % 1022,3 hPa 0,0 l/m S-SW 6,4 km/h (2 Bft)
21.01.2010 15:00 1,8 C 97 % 1022,5 hPa 0,0 l/m S-SW 3,5 km/h (1 Bft)
21.01.2010 16:00 2,0 C 97 % 1023,0 hPa 0,0 l/m S-SW 1,2 km/h (1 Bft)
21.01.2010 17:00 1,5 C 96 % 1023,2 hPa 0,0 l/m S-SW 1,7 km/h (1 Bft)
21.01.2010 18:00 1,2 C 97 % 1023,3 hPa 0,0 l/m N 0,5 km/h (0 Bft)
21.01.2010 19:00 1,0 C 97 % 1023,5 hPa 0,0 l/m N 0,0 km/h (0 Bft)
21.01.2010 20:00 0,7 C 97 % 1023,6 hPa 0,0 l/m N 0,1 km/h (0 Bft)
21.01.2010 21:00 0,4 C 97 % 1023,6 hPa 0,0 l/m S-SW 0,8 km/h (0 Bft)
21.01.2010 22:00 0,3 C 98 % 1023,5 hPa 0,0 l/m N 0,1 km/h (0 Bft)
21.01.2010 23:00 0,2 C 98 % 1023,6 hPa 0,0 l/m N 0,5 km/h (0 Bft)
22.01.2010 00:00 0,2 C 98 % 1023,5 hPa 0,0 l/m S-SW 1,7 km/h (1 Bft)
22.01.2010 01:00 0,2 C 98 % 1023,2 hPa 0,0 l/m S-SW 3,2 km/h (1 Bft)
22.01.2010 02:00 0,3 C 98 % 1023,1 hPa 0,0 l/m N 0,0 km/h (0 Bft)
22.01.2010 03:00 0,3 C 98 % 1023,3 hPa 0,0 l/m N 1,1 km/h (0 Bft)
22.01.2010 04:00 0,4 C 98 % 1023,3 hPa 0,0 l/m N 0,3 km/h (0 Bft)
22.01.2010 05:00 0,4 C 98 % 1023,4 hPa 0,0 l/m S-SW 2,4 km/h (1 Bft)
22.01.2010 06:00 0,4 C 99 % 1023,5 hPa 0,0 l/m S-SW 3,2 km/h (1 Bft)
22.01.2010 07:00 0,4 C 99 % 1023,5 hPa 0,0 l/m S-SW 3,2 km/h (1 Bft)
22.01.2010 08:00 0,4 C 99 % 1023,7 hPa 0,0 l/m S-SW 3,9 km/h (1 Bft)
22.01.2010 09:00 0,8 C 99 % 1024,0 hPa 0,0 l/m S 4,9 km/h (1 Bft)
22.01.2010 10:00 0,9 C 98 % 1024,1 hPa 0,0 l/m O-NO 8,0 km/h (2 Bft)
22.01.2010 11:00 0,6 C 98 % 1024,3 hPa 0,0 l/m NO 8,8 km/h (2 Bft)
22.01.2010 12:00 0,8 C 98 % 1024,0 hPa 0,0 l/m O-NO 7,6 km/h (2 Bft)
22.01.2010 13:00 0,9 C 97 % 1023,5 hPa 0,0 l/m NO 8,2 km/h (2 Bft)
22.01.2010 14:00 1,2 C 95 % 1023,3 hPa 0,0 l/m O-NO 8,7 km/h (2 Bft)
22.01.2010 15:00 1,1 C 93 % 1023,5 hPa 0,0 l/m NO 10,2 km/h (2 Bft)
22.01.2010 16:00 0,7 C 93 % 1024,1 hPa 0,0 l/m O 7,5 km/h (2 Bft)
22.01.2010 17:00 0,4 C 93 % 1024,3 hPa 0,0 l/m O-NO 10,5 km/h (2 Bft)
22.01.2010 18:00 0,0 C 93 % 1024,5 hPa 0,0 l/m O-NO 10,2 km/h (2 Bft)
22.01.2010 19:00 -0,3 C 94 % 1024,8 hPa 0,0 l/m O-NO 10,2 km/h (2 Bft)
22.01.2010 20:00 -0,6 C 93 % 1024,8 hPa 0,0 l/m O-NO 9,0 km/h (2 Bft)
22.01.2010 21:00 -0,7 C 93 % 1024,8 hPa 0,0 l/m O-NO 8,2 km/h (2 Bft)
22.01.2010 22:00 -0,8 C 92 % 1024,7 hPa 0,0 l/m O-NO 7,2 km/h (2 Bft)
22.01.2010 23:00 -1,0 C 92 % 1024,7 hPa 0,0 l/m O-NO 8,2 km/h (2 Bft)
23.01.2010 00:00 -1,2 C 93 % 1024,6 hPa 0,0 l/m O-NO 5,7 km/h (1 Bft)
23.01.2010 01:00 -1,3 C 92 % 1024,4 hPa 0,0 l/m O 8,0 km/h (2 Bft)
23.01.2010 02:00 -1,7 C 92 % 1024,3 hPa 0,0 l/m O-SO 9,4 km/h (2 Bft)
23.01.2010 03:00 -1,8 C 93 % 1024,0 hPa 0,0 l/m O 8,7 km/h (2 Bft)
23.01.2010 04:00 -2,2 C 93 % 1023,9 hPa 0,0 l/m O-NO 7,8 km/h (2 Bft)
23.01.2010 05:00 -2,2 C 93 % 1023,7 hPa 0,0 l/m O-SO 4,8 km/h (1 Bft)
23.01.2010 06:00 -2,3 C 93 % 1023,5 hPa 0,0 l/m O-SO 4,8 km/h (1 Bft)
23.01.2010 07:00 -2,5 C 91 % 1023,5 hPa 0,0 l/m O-SO 4,4 km/h (1 Bft)
23.01.2010 08:00 -2,6 C 92 % 1023,4 hPa 0,0 l/m O-SO 5,9 km/h (2 Bft)
23.01.2010 09:00 -2,7 C 91 % 1023,6 hPa 0,0 l/m O-SO 5,2 km/h (1 Bft)
23.01.2010 10:00 -2,5 C 91 % 1023,6 hPa 0,0 l/m SO 6,6 km/h (2 Bft)
23.01.2010 11:00 -2,1 C 89 % 1023,5 hPa 0,0 l/m O-SO 5,3 km/h (1 Bft)
23.01.2010 12:00 -1,9 C 88 % 1023,2 hPa 0,0 l/m S-SO 3,6 km/h (1 Bft)
23.01.2010 13:00 -1,1 C 84 % 1022,7 hPa 0,0 l/m S-SO 4,4 km/h (1 Bft)
23.01.2010 14:00 -0,7 C 83 % 1022,2 hPa 0,0 l/m SO 6,7 km/h (2 Bft)
23.01.2010 15:00 -1,0 C 84 % 1022,2 hPa 0,0 l/m S-SW 4,5 km/h (1 Bft)
23.01.2010 16:00 -1,7 C 87 % 1022,4 hPa 0,0 l/m N 1,5 km/h (1 Bft)
23.01.2010 17:00 -2,5 C 88 % 1022,8 hPa 0,0 l/m N 0,5 km/h (0 Bft)
23.01.2010 18:00 -3,3 C 91 % 1023,2 hPa 0,0 l/m N 0,3 km/h (0 Bft)
23.01.2010 19:00 -4,1 C 91 % 1023,4 hPa 0,0 l/m N 0,3 km/h (0 Bft)
23.01.2010 20:00 -4,7 C 92 % 1023,5 hPa 0,0 l/m N 0,5 km/h (0 Bft)
23.01.2010 21:00 -5,2 C 93 % 1023,5 hPa 0,0 l/m S-SW 0,4 km/h (0 Bft)
23.01.2010 22:00 -5,1 C 95 % 1023,3 hPa 0,0 l/m N 1,5 km/h (1 Bft)
23.01.2010 23:00 -4,8 C 96 % 1023,4 hPa 0,0 l/m N 0,8 km/h (0 Bft)
24.01.2010 00:00 -4,4 C 97 % 1023,2 hPa 0,0 l/m N 0,3 km/h (0 Bft)
24.01.2010 01:00 -4,1 C 97 % 1023,1 hPa 0,0 l/m N 1,5 km/h (1 Bft)
24.01.2010 02:00 -3,9 C 97 % 1023,1 hPa 0,0 l/m N 1,6 km/h (1 Bft)
24.01.2010 03:00 -3,8 C 97 % 1023,4 hPa 0,0 l/m S-SW 2,9 km/h (1 Bft)
24.01.2010 04:00 -3,7 C 97 % 1023,4 hPa 0,0 l/m S-SW 3,2 km/h (1 Bft)
24.01.2010 05:00 -3,6 C 97 % 1023,6 hPa 0,0 l/m S-SW 2,8 km/h (1 Bft)
24.01.2010 06:00 -3,7 C 97 % 1023,6 hPa 0,0 l/m N 1,6 km/h (1 Bft)
24.01.2010 07:00 -3,7 C 97 % 1023,8 hPa 0,0 l/m S-SW 2,8 km/h (1 Bft)
24.01.2010 08:00 -3,6 C 97 % 1024,0 hPa 0,0 l/m S-SW 3,5 km/h (1 Bft)
24.01.2010 09:00 -3,6 C 97 % 1024,1 hPa 0,0 l/m S-SW 3,7 km/h (1 Bft)
24.01.2010 10:00 -3,5 C 97 % 1024,4 hPa 0,0 l/m S-SO 4,0 km/h (1 Bft)
24.01.2010 11:00 -2,8 C 97 % 1024,5 hPa 0,0 l/m S-SO 3,1 km/h (1 Bft)
24.01.2010 12:00 -2,1 C 96 % 1024,1 hPa 0,0 l/m S 3,9 km/h (1 Bft)
24.01.2010 13:00 -1,3 C 94 % 1023,7 hPa 0,0 l/m S 3,7 km/h (1 Bft)
24.01.2010 14:00 -0,8 C 93 % 1023,4 hPa 0,0 l/m S 3,6 km/h (1 Bft)
24.01.2010 15:00 -0,8 C 94 % 1023,4 hPa 0,0 l/m O-SO 3,9 km/h (1 Bft)
24.01.2010 16:00 -1,1 C 95 % 1023,4 hPa 0,0 l/m O 2,9 km/h (1 Bft)
24.01.2010 17:00 -1,2 C 95 % 1023,6 hPa 0,0 l/m O 2,9 km/h (1 Bft)
24.01.2010 18:00 -1,4 C 96 % 1023,9 hPa 0,0 l/m O-NO 3,5 km/h (1 Bft)
24.01.2010 19:00 -1,4 C 96 % 1024,0 hPa 0,0 l/m O-NO 3,7 km/h (1 Bft)
24.01.2010 20:00 -1,4 C 96 % 1023,8 hPa 0,0 l/m N 0,8 km/h (0 Bft)
24.01.2010 21:00 -1,4 C 95 % 1023,7 hPa 0,0 l/m N 0,4 km/h (0 Bft)
24.01.2010 22:00 -1,7 C 95 % 1023,7 hPa 0,0 l/m N 0,0 km/h (0 Bft)
24.01.2010 23:00 -1,8 C 96 % 1023,8 hPa 0,0 l/m N 0,0 km/h (0 Bft)
Min-Datum _ 20.01.10 19.01.10 20.01.10 - - 18.01.10
_ Min-Zeit 09:35 13:50 14:15 - - 03:40
Minimum _ -5,6 C 77 % 1014,5 hPa - - 0,0 km/h (0 Bft)
Max-Datum _ 18.01.10 19.01.10 18.01.10 21.01.10 - 18.01.10
_ Max-Zeit 14:50 10:00 09:35 09:00 - 00:05
Maximum _ 4,1 C 100 % 1026,9 hPa 1,2 l/m - 16,1 km/h
W-NW (3 Bft)
Durchschnitt _ -1,3 C 94 % 1022,5 hPa #2,0 l/m O 3,4 km/h (1 Bft)